Wind_Speed
16 16 17 18 19 20 20 20 21 22 23 24 24 24 25 25 25 24 25 25 25 26 27 27 28 28 28 29 28 28 27 26 25 25 25 25 25 24
17 17 18 19 20 21 21 21 21 22 23 24 25 26 26 27 27 27 27 27 27 26 27 28 29 28 28 28 28 28 27 27 26 26 26 26 25 25
18 18 19 20 21 22 22 23 23 23 23 24 26 27 27 28 28 28 28 28 28 28 28 28 28 29 29 28 28 28 28 28 27 27 27 28 27 27
19 19 20 21 21 22 23 24 24 25 25 25 26 27 27 27 28 28 28 28 29 29 29 29 29 30 30 30 30 30 29 29 29 28 28 28 28 28
19 20 21 22 23 23 24 24 25 26 26 27 27 28 28 28 28 29 29 29 30 31 30 30 30 30 31 31 31 31 31 30 30 29 28 28 28 28
21 21 22 22 23 23 24 24 26 27 28 28 28 29 29 29 29 30 30 31 31 32 32 31 31 31 32 32 32 32 32 31 31 30 30 29 29 29
23 23 24 24 25 25 25 26 26 27 28 28 29 29 30 30 30 31 31 31 31 31 31 31 32 32 33 33 32 32 32 32 32 31 31 29 29 29
25 25 26 26 26 26 27 27 28 28 29 29 29 30 29 30 31 31 31 30 30 31 31 32 32 32 32 32 31 31 31 30 30 30 31 30 29 30
26 26 26 26 27 27 27 28 28 28 29 29 29 29 29 30 31 31 32 31 30 30 30 31 31 31 31 31 30 30 30 29 30 30 31 31 30 30
25 25 26 27 27 27 28 29 29 29 29 29 29 29 29 29 30 29 30 30 30 30 30 30 31 30 30 29 29 29 29 30 30 30 31 31 31 31
26 26 26 27 27 27 28 28 28 28 29 29 28 28 29 29 29 28 29 29 29 29 29 28 28 28 28 28 28 28 28 28 28 29 29 30 30 31
26 26 26 26 26 27 27 27 27 28 28 28 27 27 28 28 29 29 28 29 29 28 28 27 27 26 26 27 27 27 27 27 28 28 28 29 29 31
27 27 27 27 27 27 27 27 27 27 27 27 27 27 27 27 27 28 28 27 27 26 26 26 25 25 25 26 27 26 26 27 28 28 29 29 29 29
27 28 28 28 28 28 28 28 27 26 26 26 26 26 26 25 25 25 26 26 26 25 24 24 24 25 25 25 26 26 26 26 27 27 28 28 29 29
28 28 28 28 29 28 28 28 27 26 25 24 24 24 24 23 23 23 23 23 23 23 23 23 23 24 24 25 25 25 26 26 27 27 26 26 27 28
28 28 28 28 28 28 27 27 26 24 23 23 22 22 21 21 22 22 21 21 22 22 23 23 23 23 24 24 24 25 25 25 26 26 26 26 26 26
27 27 27 28 28 28 26 25 24 23 23 22 22 22 22 22 22 22 22 22 22 22 22 23 24 24 24 24 24 24 24 25 25 25 25 25 25 26
27 26 26 26 27 27 26 25 24 23 23 23 23 23 23 23 22 22 22 22 21 22 22 22 23 24 24 24 24 24 24 24 25 25 25 25 25 25
27 27 27 27 27 26 26 25 25 24 23 23 23 23 24 24 24 23 23 23 22 22 22 22 23 23 23 23 22 22 23 23 24 24 24 25 25 25
27 27 27 27 26 26 25 24 24 23 22 22 22 23 23 24 23 23 23 23 22 22 22 22 22 23 23 22 21 21 21 21 21 21 22 23 24 24
26 25 25 25 25 25 24 23 22 22 22 22 22 22 23 22 22 22 22 22 21 21 22 21 22 23 23 22 21 21 21 21 21 21 21 22 23 23
25 24 24 24 24 24 22 22 21 22 22 22 23 23 23 22 22 21 21 21 20 20 20 20 20 21 21 20 21 21 21 21 22 22 22 22 22 22
24 23 23 24 24 23 22 21 21 21 22 22 22 22 22 21 20 20 20 20 20 20 20 20 20 19 19 19 20 20 20 21 21 21 22 22 22 21
Wind_Direction
287 283 280 277 275 275 273 272 272 271 269 268 266 266 269 269 270 271 270 269 269 267 265 264 262 261 261 259 260 261 260 257 258 258 258 258 256 255
288 284 283 282 280 278 276 275 274 272 271 270 268 268 269 268 269 270 270 269 269 269 268 266 264 263 261 260 260 259 258 258 258 258 258 257 255 254
291 289 286 285 285 282 280 278 275 274 273 272 271 270 269 269 269 269 268 268 268 270 269 268 266 263 262 260 258 258 259 259 259 259 258 257 254 252
293 291 290 289 288 284 281 280 279 278 277 275 274 273 271 270 270 270 270 269 269 269 269 268 267 264 263 261 259 258 258 259 259 259 258 256 253 251
294 292 291 291 290 286 283 281 281 281 280 279 276 275 274 272 270 269 270 271 270 270 269 267 266 264 263 262 259 258 258 257 257 256 255 254 253 252
295 293 292 292 293 289 286 285 284 282 282 282 279 276 274 273 271 270 270 270 270 270 269 268 265 264 263 263 261 259 257 256 255 254 254 252 251 250
295 293 291 292 292 291 289 288 286 285 284 283 282 280 276 274 273 273 271 269 269 269 269 268 266 264 263 263 262 259 257 255 254 253 251 250 250 250
295 293 291 291 292 292 291 289 288 288 287 286 284 281 279 277 276 274 272 270 268 268 268 267 267 265 264 263 262 260 259 256 254 252 250 249 249 249
298 296 294 293 292 292 292 292 292 292 291 288 285 283 280 280 279 276 276 272 270 269 267 266 265 264 263 262 261 260 258 256 254 252 250 249 248 248
300 298 297 295 294 293 292 293 293 293 293 290 287 285 282 281 282 279 276 275 272 271 269 266 263 262 263 261 259 258 257 256 255 253 250 249 248 247
298 298 299 298 297 295 295 294 293 293 293 291 289 286 284 283 282 279 275 274 272 271 269 266 262 261 262 260 258 257 256 255 253 253 251 249 249 248
299 299 300 301 300 299 298 297 295 295 294 292 290 288 286 284 282 279 277 274 272 269 267 266 263 263 262 262 259 257 256 255 252 251 250 249 249 247
300 300 301 302 301 300 300 298 297 297 296 294 291 289 288 286 284 281 277 276 274 270 267 266 264 262 262 261 259 258 257 255 252 250 249 250 250 247
300 301 302 302 301 300 300 299 298 297 297 296 293 290 289 288 286 283 280 276 273 270 268 266 265 263 263 263 261 258 257 254 253 250 248 247 246 245
302 301 301 301 302 301 301 300 298 297 297 296 295 292 289 288 287 284 281 278 273 270 268 266 265 264 264 264 263 260 257 254 253 250 246 244 243 242
302 303 303 303 303 303 302 300 299 298 296 295 293 292 291 290 289 288 284 280 275 272 269 267 266 265 265 265 264 262 258 254 252 249 246 244 242 242
303 304 305 305 304 304 302 300 299 296 293 292 292 291 292 293 292 289 284 280 276 274 271 268 266 266 265 266 265 263 259 257 252 248 244 243 243 243
306 306 307 307 306 304 302 301 299 297 295 294 292 291 289 290 290 287 286 283 278 273 270 269 266 266 266 266 266 264 259 256 252 248 245 243 243 243
306 306 306 306 306 306 305 302 299 297 296 295 293 292 290 289 289 288 286 283 278 273 270 270 268 266 266 266 265 262 258 255 253 250 246 244 243 243
307 306 306 306 305 305 305 303 300 298 296 295 294 293 292 290 289 288 286 285 280 274 272 269 268 267 267 266 264 261 257 254 253 252 249 245 243 243
307 306 306 306 307 306 305 304 303 300 297 296 296 296 296 294 291 288 286 284 280 275 272 271 270 267 267 267 264 259 256 255 254 253 251 250 246 243
307 307 308 310 309 308 306 306 305 302 300 297 296 297 297 296 292 288 287 283 279 276 274 273 271 268 266 266 265 261 258 256 254 252 251 250 246 241
309 309 309 310 310 309 306 306 305 305 303 300 299 297 297 295 293 289 286 283 279 276 273 272 272 270 267 266 266 261 259 257 256 253 250 247 244 241
Height
5821 5820 5820 5819 5819 5818 5818 5818 5818 5817 5817 5816 5815 5815 5815 5814 5814 5814 5814 5814 5813 5813 5813 5813 5813 5813 5814 5815 5816 5817 5817 5818 5820 5821 5822 5823 5824 5826
5816 5815 5815 5814 5813 5812 5812 5811 5811 5811 5810 5809 5809 5808 5807 5807 5807 5807 5807 5806 5806 5805 5805 5805 5805 5805 5806 5807 5808 5809 5810 5811 5812 5813 5814 5816 5817 5818
5812 5810 5809 5808 5807 5806 5805 5805 5804 5804 5803 5802 5801 5801 5800 5800 5799 5799 5799 5798 5798 5797 5797 5797 5797 5798 5798 5799 5800 5801 5802 5803 5804 5806 5807 5808 5809 5811
5807 5805 5804 5803 5801 5800 5799 5798 5797 5796 5796 5795 5794 5792 5792 5791 5791 5790 5790 5790 5789 5789 5789 5789 5789 5789 5790 5790 5792 5793 5794 5795 5796 5797 5799 5800 5802 5803
5801 5800 5798 5797 5795 5794 5793 5791 5790 5789 5788 5787 5786 5785 5783 5783 5782 5782 5781 5781 5780 5780 5780 5780 5780 5780 5781 5781 5782 5784 5785 5786 5788 5789 5790 5792 5794 5796
5796 5794 5793 5791 5789 5787 5786 5784 5783 5782 5780 5779 5778 5776 5775 5774 5774 5773 5772 5772 5771 5771 5771 5771 5771 5771 5772 5772 5773 5774 5776 5777 5779 5780 5782 5784 5786 5788
5791 5789 5787 5785 5783 5781 5779 5777 5775 5774 5772 5771 5769 5768 5767 5765 5765 5764 5763 5762 5762 5761 5761 5761 5761 5762 5762 5762 5763 5764 5766 5768 5770 5771 5773 5775 5777 5779
5784 5782 5780 5778 5776 5774 5772 5770 5768 5766 5764 5762 5761 5759 5758 5756 5755 5754 5753 5753 5753 5753 5752 5752 5752 5752 5752 5753 5754 5755 5757 5758 5760 5762 5764 5767 5769 5771
5777 5775 5773 5771 5768 5766 5764 5762 5759 5757 5755 5753 5752 5750 5748 5747 5746 5745 5744 5744 5744 5743 5743 5743 5743 5743 5743 5744 5744 5746 5747 5749 5751 5753 5755 5758 5760 5763
5771 5768 5766 5763 5761 5758 5756 5754 5751 5749 5746 5744 5742 5741 5739 5738 5737 5736 5735 5735 5734 5734 5734 5734 5734 5734 5734 5735 5735 5737 5738 5740 5741 5743 5746 5748 5751 5754
5764 5761 5758 5756 5753 5751 5749 5746 5743 5740 5738 5735 5733 5731 5729 5728 5727 5726 5725 5725 5725 5725 5724 5725 5725 5725 5726 5726 5727 5728 5729 5731 5732 5734 5736 5739 5742 5745
5756 5754 5751 5748 5746 5743 5740 5738 5735 5732 5729 5727 5724 5722 5720 5719 5717 5717 5716 5716 5715 5716 5716 5716 5716 5716 5718 5718 5719 5720 5721 5722 5724 5726 5728 5730 5733 5735
5749 5746 5744 5741 5738 5735 5732 5730 5727 5724 5721 5718 5716 5713 5712 5710 5709 5708 5707 5706 5706 5706 5707 5707 5707 5708 5709 5710 5710 5711 5713 5714 5715 5717 5719 5722 5724 5727
5742 5739 5736 5733 5730 5727 5724 5721 5718 5715 5712 5710 5707 5705 5703 5702 5700 5699 5698 5697 5697 5697 5698 5698 5699 5700 5700 5701 5702 5703 5704 5705 5707 5709 5711 5713 5715 5718
5735 5732 5728 5725 5722 5719 5715 5712 5709 5707 5704 5702 5699 5697 5695 5694 5692 5691 5690 5689 5689 5689 5689 5690 5690 5691 5692 5692 5693 5694 5696 5697 5699 5700 5702 5705 5707 5710
5727 5724 5720 5717 5714 5711 5707 5704 5701 5699 5696 5694 5692 5690 5688 5686 5685 5683 5682 5682 5681 5681 5681 5681 5682 5683 5683 5684 5685 5686 5687 5689 5690 5692 5694 5696 5699 5702
5719 5716 5713 5709 5706 5703 5699 5696 5694 5691 5689 5687 5685 5683 5682 5680 5678 5676 5675 5674 5673 5673 5673 5674 5674 5674 5675 5676 5676 5677 5678 5680 5682 5684 5686 5688 5691 5694
5712 5709 5705 5702 5699 5695 5692 5689 5687 5684 5682 5680 5678 5676 5674 5672 5670 5669 5668 5666 5666 5665 5665 5666 5666 5666 5667 5668 5669 5669 5670 5672 5674 5675 5678 5680 5683 5686
5705 5701 5698 5695 5691 5688 5685 5682 5679 5677 5675 5672 5670 5668 5666 5665 5663 5661 5660 5659 5658 5658 5658 5658 5658 5658 5659 5660 5661 5661 5663 5664 5666 5667 5669 5672 5675 5678
5697 5694 5690 5687 5684 5681 5678 5675 5672 5669 5667 5665 5663 5660 5658 5657 5655 5653 5652 5651 5650 5649 5649 5650 5650 5650 5651 5653 5653 5654 5655 5657 5658 5660 5662 5664 5667 5670
5690 5687 5683 5680 5677 5674 5671 5668 5665 5663 5660 5658 5656 5653 5651 5649 5647 5645 5644 5643 5642 5641 5641 5642 5642 5642 5643 5644 5646 5647 5648 5649 5651 5653 5655 5657 5659 5662
5683 5680 5677 5673 5670 5667 5664 5661 5659 5656 5653 5651 5649 5646 5644 5642 5639 5638 5636 5635 5635 5634 5634 5634 5634 5635 5635 5636 5638 5639 5641 5642 5643 5645 5647 5650 5652 5655
5676 5673 5670 5667 5664 5661 5658 5655 5652 5650 5647 5644 5642 5640 5637 5635 5633 5631 5630 5629 5628 5627 5627 5627 5627 5627 5628 5629 5630 5631 5632 5634 5635 5637 5640 5642 5644 5647